Content
SEND FEEDBACK

Daily
Averages
Monthly
Summary
Canada

CHARLOTTETOWN, PRINCE EDWARD ISLAND


Home > North America > Canada > Prince Edward Island
Elevation: 181 feet     Latitude: 46 17N     Longitude: 063 08W

WEATHER
 
SELECT A DAY
Number of Records: 198,362;   Date Range: 1/1/95 - 10/29/14
 
SHARE

PRINT THIS DATA

[ ← Previous Day ]
WEATHER ALMANAC - MAY 7, 2013
[ Next Day → ]
[ °C ]   °F
Weather ElementAverageHighLow
Temperature58.1 °F73.4 °F (4:00 pm)46 °F (3:00 am)
Dewpoint46.7 °F53.6 °F (9:00 am)42.8 °F (7:00 pm)
Humidity69.3 %100 % (5:34 am)29 % (3:00 pm)
Barometer30.08 in30.15 in (2:00 am)30.01 in (4:00 pm)
Wind Speed17.4 mph25.3 mph (10:00 am)
Wind Gust33.4 mph (10:00 am)
Weather ElementAverage
Visibility15 mi
Wind DirectionSW (219.7 °)

Weather ElementTotal
Precipitation---
Heating Degree Days5.3 (Base 65)
Growing Degree Days9.7 (Base 50)
Averaged from 31 records on May 7, 2013
WEATHER CONDITIONS BREAKOUT
WIND DIRECTION BREAKOUT
WEATHER BY HOUR - MAY 7, 2013
[ °C ]   °F
Local TimeTemperatureDewpointHumidityBarometerVisibilityWind DirectionWind SpeedGust SpeedPrecipitationEventsConditions
1:00 AM50.0 °F44.6 °F82 %30.14 in15.0 miSSW (210°)15.0 mph20.7 mphPartly Cloudy
2:00 AM50.0 °F44.6 °F82 %30.15 in15.0 miSSW (210°)12.7 mphClear
3:00 AM46.0 °F44.0 °F91 %30.14 in15.0 miSouth (190°)10.4 mph
3:00 AM46.4 °F44.6 °F93 %30.14 in15.0 miSSW (200°)10.4 mphClear
4:00 AM46.4 °F44.6 °F93 %30.13 in15.0 miSSW (210°)8.1 mphPartly Cloudy
5:00 AM46.4 °F44.6 °F93 %30.12 in15.0 miSSW (210°)10.4 mphPartly Cloudy
5:18 AM46.4 °F44.6 °F93 %30.12 in15.0 miSSW (210°)12.7 mphScattered Clouds
5:34 AM46.4 °F46.4 °F100 %30.12 in15.0 miSW (220°)13.8 mphMostly Cloudy
6:00 AM48.2 °F48.2 °F100 %30.12 in15.0 miSW (220°)16.1 mph26.5 mphOvercast
6:25 AM50.0 °F48.2 °F94 %30.12 in15.0 miSW (220°)18.4 mph24.2 mphOvercast
7:00 AM50.0 °F50.0 °F100 %30.12 in15.0 miSW (220°)17.3 mph26.5 mphOvercast
8:00 AM53.6 °F51.8 °F94 %30.11 in15.0 miSSW (210°)17.3 mph25.3 mphMostly Cloudy
8:35 AM55.4 °F51.8 °F88 %30.11 in15.0 miSW (220°)20.7 mph29.9 mphMostly Cloudy
9:00 AM57.0 °F53.0 °F81 %30.11 in15.0 miSW (220°)19.6 mphPartly Cloudy
9:00 AM57.2 °F53.6 °F88 %30.11 in15.0 miSW (220°)20.7 mph28.8 mphScattered Clouds
10:00 AM59.0 °F51.8 °F77 %30.09 in15.0 miSW (220°)25.3 mph33.4 mphPartly Cloudy
11:00 AM62.6 °F50.0 °F63 %30.09 in15.0 miSW (220°)17.3 mph27.6 mphPartly Cloudy
12:00 PM64.4 °F48.2 °F56 %30.07 in15.0 miSSW (210°)21.9 mph29.9 mphPartly Cloudy
1:00 PM68.0 °F48.2 °F49 %30.05 in15.0 miSSW (200°)21.9 mph28.8 mphPartly Cloudy
2:00 PM69.8 °F46.4 °F43 %30.03 in15.0 miSW (220°)23.0 mph31.1 mphScattered Clouds
3:00 PM71.0 °F46.0 °F29 %30.03 in15.0 miSW (220°)20.7 mphScattered Clouds
3:00 PM71.6 °F44.6 °F38 %30.02 in15.0 miSW (220°)20.7 mph28.8 mphScattered Clouds
4:00 PM73.4 °F44.6 °F36 %30.01 in15.0 miWSW (240°)24.2 mph31.1 mphScattered Clouds
5:00 PM71.6 °F46.4 °F41 %30.02 in15.0 miSW (230°)21.9 mph27.6 mphMostly Cloudy
6:00 PM69.8 °F44.6 °F40 %30.02 in15.0 miSW (230°)20.7 mph29.9 mphMostly Cloudy
7:00 PM66.2 °F42.8 °F43 %30.02 in15.0 miWSW (240°)19.6 mph29.9 mphMostly Cloudy
8:00 PM64.4 °F44.6 °F49 %30.04 in15.0 miSW (230°)18.4 mph25.3 mphMostly Cloudy
9:00 PM60.0 °F43.0 °F42 %30.06 in15.0 miWSW (240°)12.7 mphScattered Clouds
9:00 PM60.8 °F42.8 °F52 %30.05 in15.0 miSW (230°)13.8 mphMostly Cloudy
10:00 PM59.0 °F42.8 °F55 %30.07 in15.0 miSW (230°)16.1 mphMostly Cloudy
11:00 PM59.0 °F46.4 °F63 %30.09 in15.0 miWSW (240°)16.1 mph24.2 mphMostly Cloudy
Hourly data recorded from CYYG, located miles away from Charlottetown, Prince Edward Island







STORIES FROM OUR PARTNERS